Sevilla, Spain

7:33 PM CEST on October 17, 2017 (GMT +0200)
San Pablo

Weather History for LEZL - March, 2013

Change the Weather History Date:

Saturday, March 16, 2013

  Actual Average Record
Temperature  
Mean Temperature 56 °F -  
Max Temperature 64 °F 71 °F 82 °F (1997)
Min Temperature 48 °F 49 °F 41 °F (2015)
Degree Days  
Heating Degree Days 9    
Growing Degree Days 6 (Base 50)    
Moisture  
Dew Point 46 °F    
Average Humidity 72    
Maximum Humidity 94    
Minimum Humidity 34    
Precipitation  
Precipitation 0.00 in - - ()
Sea Level Pressure  
Sea Level Pressure 29.84 in    
Wind  
Wind Speed 3 mph ()    
Max Wind Speed 10 mph    
Max Gust Speed -    
Visibility 6.2 miles    
Events Rain    
Averages and records for this station are not official NWS values.
T = Trace of Precipitation, MM = Missing Value Source: Averaged Metar Reports

Daily Weather History Graph

Daily Weather History Graph

Search for Another Location

Airport or City:

Trip Planner

Search our weather history database for the weather conditions in past years. The results will help you decide how hot, cold, wet, or windy it might be!

Date:

Astronomy

Mar. 16, 2013 Rise Set
Actual Time 7:33 AM CET 7:31 PM CET
Civil Twilight 7:07 AM CET 7:57 PM CET
Nautical Twilight 6:36 AM CET 8:28 PM CET
Astronomical Twilight 6:06 AM CET 8:58 PM CET
Moon 9:59 AM CET (3/16) No Moon Set
Length of Visible Light 12h 50m
Length of Day
11h 58m
Waxing Crescent, 21% of the Moon is Illuminated
Mar 16
Waxing Crescent
Mar 19
First Quarter
Mar 27
Full
Apr 3
Last Quarter
Apr 10
New

Hourly Weather History & Observations

Time (CET) Temp. Dew Point Humidity Pressure Visibility Wind Dir Wind Speed Gust Speed Precip Events Conditions
12:00 AM 53.6 °F 48.2 °F 82% 29.98 in - Calm Calm - N/A   Clear
12:30 AM 53.6 °F 46.4 °F 77% 29.95 in - Variable 2.3 mph - N/A   Clear
1:00 AM 53.6 °F 46.4 °F 77% 29.98 in - Variable 2.3 mph - N/A   Clear
4:30 AM 50.0 °F 46.4 °F 87% 29.89 in - NNE 3.5 mph - N/A   Clear
5:00 AM 50.0 °F 48.2 °F 94% 29.89 in - NNE 3.5 mph - N/A   Clear
5:30 AM 50.0 °F 48.2 °F 94% 29.89 in - ENE 2.3 mph - N/A   Clear
6:00 AM 50.0 °F 48.2 °F 94% 29.89 in - NE 2.3 mph - N/A   Clear
6:30 AM 50.0 °F 48.2 °F 94% 29.89 in - ENE 2.3 mph - N/A   Clear
7:00 AM 50.0 °F 46.4 °F 87% 29.86 in - ENE 2.3 mph - N/A   Clear
7:30 AM 48.2 °F 46.4 °F 93% 29.89 in - NE 4.6 mph - N/A   Clear
8:00 AM 50.0 °F 42.8 °F 76% 29.89 in - NE 6.9 mph - N/A   Clear
8:30 AM 50.0 °F 42.8 °F 76% 29.86 in - ENE 6.9 mph - N/A   Clear
9:00 AM 50.0 °F 42.8 °F 76% 29.86 in - NE 8.1 mph - N/A   Clear
9:30 AM 51.8 °F 44.6 °F 76% 29.89 in - NNE 3.5 mph - N/A   Clear
10:30 AM 55.4 °F 42.8 °F 63% 29.89 in - ENE 4.6 mph - N/A   Clear
11:00 AM 55.4 °F 42.8 °F 63% 29.89 in - NE 3.5 mph - N/A   Clear
11:30 AM 57.2 °F 44.6 °F 63% 29.89 in - NE 5.8 mph - N/A   Clear
12:30 PM 59.0 °F 44.6 °F 59% 29.86 in - Variable 2.3 mph - N/A   Clear
1:00 PM 62.6 °F 39.2 °F 42% 29.86 in - SE 2.3 mph - N/A   Clear
1:30 PM 62.6 °F 39.2 °F 42% 29.86 in - Variable 1.2 mph - N/A   Clear
2:00 PM 64.4 °F 35.6 °F 34% 29.83 in - Calm Calm - N/A   Clear
2:30 PM 64.4 °F 35.6 °F 34% 29.83 in - Calm Calm - N/A   Clear
3:00 PM 64.4 °F 42.8 °F 45% 29.80 in - Variable 1.2 mph - N/A   Clear
3:30 PM 64.4 °F 44.6 °F 49% 29.80 in - Variable 2.3 mph - N/A   Clear
4:00 PM 64.4 °F 46.4 °F 52% 29.80 in - South 3.5 mph - N/A   Clear
4:30 PM 64.4 °F 44.6 °F 49% 29.80 in - South 4.6 mph - N/A   Clear
5:00 PM 62.6 °F 44.6 °F 52% 29.77 in - SSE 5.8 mph - N/A   Clear
5:30 PM 62.6 °F 46.4 °F 55% 29.83 in 6.2 mi SW 10.4 mph - N/A Rain Light Rain
6:00 PM 59.0 °F 50.0 °F 72% 29.83 in 6.2 mi WSW 6.9 mph - N/A   Partly Cloudy
6:30 PM 60.8 °F 51.8 °F 72% 29.80 in 6.2 mi SW 4.6 mph - N/A   Partly Cloudy
7:00 PM 59.0 °F 51.8 °F 77% 29.77 in 6.2 mi Variable 2.3 mph - N/A   Partly Cloudy
7:30 PM 59.0 °F 51.8 °F 77% 29.77 in 6.2 mi Variable 1.2 mph - N/A Rain Light Rain
8:00 PM 57.2 °F 53.6 °F 88% 29.77 in 6.2 mi East 3.5 mph - N/A   Partly Cloudy
8:30 PM 57.2 °F 53.6 °F 88% 29.74 in 6.2 mi East 2.3 mph - N/A   Partly Cloudy
9:30 PM 55.4 °F 51.8 °F 88% 29.77 in 6.2 mi East 2.3 mph - N/A   Partly Cloudy
10:00 PM 55.4 °F 51.8 °F 88% 29.77 in - NNE 2.3 mph - N/A   Clear
10:30 PM 55.4 °F 51.8 °F 88% 29.74 in - Variable 1.2 mph - N/A   Clear
11:00 PM 53.6 °F 51.8 °F 94% 29.74 in - ESE 2.3 mph - N/A   Clear
11:30 PM 53.6 °F 51.8 °F 94% 29.74 in - ESE 2.3 mph - N/A   Clear